Find Starlink 4202

NORAD ID: 52848 Int'l Des: 2022-062 Owner: SPXS Country: US Constellation: starlink operational
LEOCIRCULAR

リアルタイム位置

3D地球を読み込み中...

Starlink 4202について

説明を読み込み中...

次回通過

Passes for default location (London). Set your location on the main map for personalized predictions.

高度履歴

Loading altitude history...

軌道要素

1 52848U 22062U 26124.77080691 .00000510 00000-0 50143-4 0 9995
2 52848 53.2165 142.3623 0001095 82.4043 277.7073 15.08838734214252
Epoch: May 4, 2026 • Age: 9 hours

現在のステータス

高度 541.6 km
速度 7.60 km/s
衛星直下点 33.64°N, 22.35°E
打ち上げ日 Jun 17, 2022
運用期間 3.8 years
タイプ internet

技術仕様

分類 Payload
質量 297.00 kg
乾燥質量 275.00 kg
総質量 297.00 kg
長さ 0.20 m
直径 2.80 m
スパン 9.00 m
形状 Box + pan
製造者 SPXS
バスタイプ Starlink
フェーズステータス In Orbit
所有者/国 SPXS/US

Most Searched